Orbital Elements at Epoch 2459200.5 (2020-Dec-17.0) TDB
Reference: JPL 26 (heliocentric ecliptic J2000)
Element | Value | Uncertainty (1-sigma) | Units |
e | .06594442567113001 | 4.2046e-08 | |
a | 2.796460638189524 | 1.463e-08 | au |
q | 2.612049647492194 | 1.1711e-07 | au |
i | .7812655988140579 | 4.8127e-06 | deg |
node | 308.3855719269532 | 0.00028929 | deg |
peri | 175.93528078 | 0.00029155 | deg |
M | 99.86090271739839 | 3.463e-05 | deg |
tp | 2458726.689719175986 (2019-Aug-31.18971918) | 0.00016427 | TDB |
period | 1708.09292180499 4.68 | 1.3404e-05 3.67e-08 | d yr |
n | .2107613674902287 | 1.654e-09 | deg/d |
Q | 2.980871628886854 | 1.5595e-08 | au |
|
| | Orbit Determination Parameters
Additional Information
|